EW9479 Weather Reports


time (UTC)temp
C
wind
direction
speed
KPH
gust
KPH
rain 1hr
cm
rain 24hr
cm
rain mn
cm
humidity
%
barometer
mb
20260906123046 25 0 0.0 4.8 0.00 0.00 0.00 85 1015.0
20260906121545 24 216 1.6 1.6 0.00 0.00 0.00 84 1014.9
20260906120047 24 215 1.6 4.8 0.00 0.00 0.00 84 1014.8
20260906114550 24 53 0.0 1.6 0.00 0.00 0.00 84 1014.6
20260906113046 25 0 1.6 6.4 0.00 0.00 0.00 84 1014.9
20260906111601 24 59 0.0 3.2 0.00 0.00 0.00 85 1014.8
20260906110045 24 49 0.0 3.2 0.00 0.00 0.00 86 1014.4
20260906104551 24 190 1.6 3.2 0.00 0.00 0.00 86 1014.2
20260906103045 24 64 0.0 8.0 0.00 0.00 0.00 86 1014.4
20260906101545 23 33 4.8 11.3 0.00 0.00 0.00 88 1014.2
20260906100048 23 56 1.6 3.2 0.00 0.00 0.00 88 1013.2
20260906094549 23 0 0.0 3.2 0.00 0.00 0.00 88 1013.3
20260906093047 24 0 0.0 0.0 0.00 0.00 0.00 87 1013.1
20260906091546 24 0 0.0 0.0 0.00 0.00 0.00 86 1013.0
20260906090054 25 0 0.0 0.0 0.00 0.00 0.00 84 1013.1
20260906084546 25 0 0.0 0.0 0.00 0.00 0.00 82 1013.0
20260906083050 25 0 0.0 3.2 0.00 0.00 0.00 83 1012.9
20260906081545 25 222 1.6 4.8 0.00 0.00 0.00 85 1013.0
20260906080046 23 198 4.8 6.4 0.00 0.00 0.00 88 1013.0
20260906074547 24 0 0.0 0.0 0.00 0.00 0.00 87 1013.0
20260906073046 24 0 0.0 0.0 0.00 0.00 0.00 87 1012.9
20260906071547 24 0 0.0 0.0 0.00 0.00 0.00 86 1012.8
20260906070044 24 0 0.0 0.0 0.00 0.00 0.00 86 1012.8
20260906064551 24 210 0.0 1.6 0.00 0.00 0.00 86 1012.8
20260906063055 24 0 0.0 0.0 0.00 0.00 0.00 86 1012.9
20260906061546 24 0 0.0 0.0 0.00 0.00 0.00 85 1013.1
20260906060052 25 0 0.0 0.0 0.00 0.00 0.00 85 1013.4
20260906054559 25 0 0.0 0.0 0.00 0.00 0.00 85 1013.5
20260906053045 25 0 0.0 1.6 0.00 0.00 0.00 85 1013.5
20260906051609 25 0 0.0 0.0 0.00 0.00 0.00 84 1013.6
20260906050054 25 0 0.0 0.0 0.00 0.00 0.00 83 1013.6
20260906044552 25 0 0.0 0.0 0.00 0.00 0.00 83 1013.6
20260906043046 25 0 0.0 0.0 0.00 0.00 0.00 82 1013.5
20260906041553 25 0 0.0 0.0 0.00 0.00 0.00 81 1013.4
20260906040125 26 0 0.0 0.0 0.00 0.00 0.00 79 1013.4
20260906034555 26 0 0.0 0.0 0.00 0.00 0.00 78 1013.3
20260906033101 26 0 0.0 0.0 0.00 0.00 0.00 77 1013.3
20260906031550 26 210 0.0 1.6 0.00 0.00 0.00 77 1013.2
20260906030047 27 210 0.0 1.6 0.00 0.00 0.00 77 1013.2
20260906024559 27 0 0.0 1.6 0.00 0.00 0.00 75 1013.1
20260906023101 27 0 0.0 1.6 0.00 0.00 0.00 75 1013.1
20260906021550 27 108 0.0 1.6 0.00 0.00 0.00 75 1013.0
20260906020052 27 0 0.0 0.0 0.00 0.00 0.00 75 1012.9
20260906014554 28 0 0.0 0.0 0.00 0.00 0.00 72 1012.9
20260906013053 28 0 0.0 0.0 0.00 0.00 0.00 71 1012.8
20260906011553 29 0 0.0 1.6 0.00 0.00 0.00 71 1012.5
20260906010045 30 0 0.0 0.0 0.00 0.00 0.00 69 1012.2
20260906004550 30 0 0.0 0.0 0.00 0.00 0.00 66 1012.0
20260906003044 31 0 0.0 0.0 0.00 0.00 0.00 64 1011.9
20260906001546 32 0 0.0 0.0 0.00 0.00 0.00 59 1012.0
20260906000053 34 0 0.0 0.0 0.00 0.00 0.00 58 1012.0
20260905234547 35 0 0.0 0.0 0.00 0.00 0.00 55 1012.2
20260905233055 35 0 0.0 1.6 0.00 0.00 0.00 53 1012.2
20260905231546 35 0 0.0 3.2 0.00 0.00 0.00 51 1012.2
20260905230045 36 83 0.0 4.8 0.00 0.00 0.00 51 1012.3
20260905224610 36 0 0.0 4.8 0.00 0.00 0.00 49 1012.2
20260905223048 37 49 1.6 6.4 0.00 0.00 0.00 48 1012.2
20260905221552 37 87 1.6 8.0 0.00 0.00 0.00 49 1012.3
20260905220044 37 79 3.2 9.7 0.00 0.00 0.00 48 1012.4
20260905214551 37 5 1.6 8.0 0.00 0.00 0.00 49 1012.3
20260905213044 37 91 1.6 11.3 0.00 0.00 0.00 50 1012.5
20260905211549 36 8 1.6 16.1 0.00 0.00 0.00 51 1012.5
20260905210053 37 67 6.4 14.5 0.00 0.00 0.00 48 1012.5
20260905204553 37 44 1.6 4.8 0.00 0.00 0.00 45 1012.6
20260905203047 38 352 1.6 6.4 0.00 0.00 0.00 42 1012.9
20260905201548 38 21 3.2 9.7 0.00 0.00 0.00 44 1013.2
20260905200046 38 66 1.6 8.0 0.00 0.00 0.00 44 1013.4
20260905194551 37 106 3.2 9.7 0.00 0.00 0.00 46 1013.6
20260905193044 37 70 3.2 8.0 0.00 0.00 0.00 46 1013.8
20260905191546 37 153 3.2 12.9 0.00 0.00 0.00 46 1013.9
20260905190052 37 84 6.4 14.5 0.00 0.00 0.00 48 1014.1
20260905184558 37 104 3.2 14.5 0.00 0.00 0.00 45 1014.4
20260905183047 37 342 0.0 9.7 0.00 0.00 0.00 47 1014.5
20260905181554 37 309 3.2 9.7 0.00 0.00 0.00 48 1014.5
20260905174546 36 39 4.8 12.9 0.00 0.00 0.00 49 1014.7
20260905173103 36 36 3.2 14.5 0.00 0.00 0.00 50 1014.8
20260905171555 35 119 1.6 8.0 0.00 0.00 0.00 52 1015.1
20260905164546 35 83 3.2 12.9 0.00 0.00 0.00 58 1015.6
20260905163054 35 77 3.2 8.0 0.00 0.00 0.00 57 1015.7
20260905161601 34 345 1.6 8.0 0.00 0.00 0.00 60 1015.8
20260905160049 34 57 3.2 6.4 0.00 0.00 0.00 59 1015.9
20260905154547 33 288 1.6 8.0 0.00 0.00 0.00 62 1015.9
20260905153045 33 212 0.0 9.7 0.00 0.00 0.00 61 1016.1
20260905151547 33 346 0.0 3.2 0.00 0.00 0.00 64 1016.1
20260905150048 32 162 1.6 6.4 0.00 0.00 0.00 66 1016.1
20260905144552 32 227 0.0 3.2 0.00 0.00 0.00 66 1016.0
20260905143047 32 162 1.6 3.2 0.00 0.00 0.00 69 1016.0
20260905141545 31 89 0.0 1.6 0.00 0.00 0.00 72 1016.0
20260905140053 30 0 0.0 3.2 0.00 0.00 0.00 74 1016.0
20260905134555 30 86 0.0 1.6 0.00 0.00 0.00 76 1015.9
20260905133045 28 0 0.0 1.6 0.00 0.00 0.00 79 1016.0
20260905131544 26 0 0.0 3.2 0.00 0.00 0.00 85 1016.1
20260905130052 24 0 0.0 1.6 0.00 0.00 0.00 91 1016.0
20260905124552 23 0 0.0 1.6 0.00 0.00 0.00 93 1016.1